| time (UTC) | temp C | wind direction | speed KPH | gust KPH | rain 1hr cm | rain 24hr cm | rain mn cm | humidity % | barometer mb |
| 20260510104619 | -17 | 0.0 | 0.0 | 0.00 | 0.00 | 0.00 | 1013.1 | ||
| 20260510103100 | -17 | 0.0 | 0.0 | 0.00 | 0.00 | 0.00 | 1012.7 | ||
| 20260510101551 | -17 | 0.0 | 0.0 | 0.00 | 0.00 | 0.00 | 1012.6 | ||
| 20260510100054 | -17 | 0.0 | 0.0 | 0.00 | 0.00 | 0.00 | 1012.7 | ||
| 20260510094547 | 7 | 153 | 0.0 | 0.0 | 0.00 | 0.00 | 0.00 | 94 | 1012.5 |
| 20260510093041 | 7 | 153 | 0.0 | 0.0 | 0.00 | 0.00 | 0.00 | 94 | 1012.2 |
| 20260510091538 | 7 | 154 | 0.0 | 0.0 | 0.00 | 0.00 | 0.00 | 94 | 1012.0 |
| 20260510090036 | 7 | 153 | 0.0 | 0.0 | 0.00 | 0.00 | 0.00 | 94 | 1011.7 |
| 20260510084539 | 8 | 153 | 0.0 | 0.0 | 0.00 | 0.00 | 0.00 | 93 | 1011.1 |
| 20260510083037 | 8 | 153 | 0.0 | 0.0 | 0.00 | 0.00 | 0.00 | 93 | 1011.3 |
| 20260510081528 | 8 | 153 | 0.0 | 0.0 | 0.00 | 0.00 | 0.00 | 94 | 1011.4 |
| 20260510080029 | 9 | 153 | 0.0 | 1.6 | 0.00 | 0.00 | 0.00 | 93 | 1011.1 |
| 20260510074521 | 10 | 153 | 0.0 | 0.0 | 0.00 | 0.00 | 0.00 | 94 | 1010.7 |
| 20260510073018 | 10 | 153 | 0.0 | 1.6 | 0.00 | 0.00 | 0.00 | 94 | 1010.4 |
| 20260510071515 | 10 | 153 | 0.0 | 3.2 | 0.00 | 0.00 | 0.00 | 94 | 1010.2 |
| 20260510070023 | 11 | 153 | 0.0 | 6.4 | 0.00 | 0.08 | 0.00 | 95 | 1009.9 |
| 20260510064513 | 11 | 153 | 0.0 | 4.8 | 0.00 | 0.08 | 0.00 | 95 | 1009.7 |
| 20260510063012 | 10 | 153 | 0.0 | 0.0 | 0.00 | 0.08 | 0.00 | 95 | 1009.6 |
| 20260510061507 | 10 | 153 | 0.0 | 0.0 | 0.00 | 0.08 | 0.00 | 94 | 1009.4 |
| 20260510060006 | 11 | 153 | 0.0 | 0.0 | 0.00 | 0.33 | 0.00 | 95 | 1009.4 |
| 20260510054508 | 11 | 153 | 0.0 | 4.8 | 0.00 | 0.33 | 0.00 | 95 | 1009.4 |
| 20260510053003 | 11 | 153 | 0.0 | 0.0 | 0.00 | 0.33 | 0.00 | 95 | 1009.0 |
| 20260510051606 | 11 | 153 | 0.0 | 0.0 | 0.00 | 0.33 | 0.00 | 94 | 1008.9 |
| 20260510051501 | 11 | 153 | 0.0 | 0.0 | 0.00 | 0.33 | 0.00 | 94 | 1008.8 |
| 20260510050100 | 11 | 153 | 0.0 | 0.0 | 0.00 | 0.43 | 0.00 | 94 | 1008.3 |
| 20260510044557 | 11 | 153 | 0.0 | 0.0 | 0.00 | 0.43 | 0.00 | 94 | 1008.2 |
| 20260510043101 | 11 | 153 | 0.0 | 0.0 | 0.00 | 0.43 | 0.00 | 94 | 1008.3 |
| 20260510041608 | 11 | 153 | 0.0 | 0.0 | 0.00 | 0.43 | 0.00 | 94 | 1008.3 |
| 20260510040049 | 12 | 153 | 0.0 | 0.0 | 0.00 | 0.48 | 0.43 | 94 | 1008.3 |
| 20260510034550 | 12 | 153 | 0.0 | 1.6 | 0.00 | 0.48 | 0.43 | 94 | 1008.5 |
| 20260510033049 | 12 | 153 | 0.0 | 4.8 | 0.00 | 0.48 | 0.43 | 94 | 1008.8 |
| 20260510031546 | 12 | 153 | 0.0 | 0.0 | 0.00 | 0.48 | 0.43 | 94 | 1008.0 |
| 20260510030050 | 12 | 153 | 0.0 | 0.0 | 0.00 | 0.58 | 0.43 | 94 | 1008.4 |
| 20260510024554 | 12 | 153 | 0.0 | 0.0 | 0.00 | 0.58 | 0.43 | 94 | 1008.3 |
| 20260510023047 | 12 | 153 | 0.0 | 8.0 | 0.00 | 0.58 | 0.43 | 94 | 1008.6 |
| 20260510021545 | 11 | 153 | 0.0 | 0.0 | 0.00 | 0.58 | 0.43 | 94 | 1007.5 |
| 20260510020050 | 11 | 153 | 0.0 | 0.0 | 0.00 | 0.69 | 0.43 | 94 | 1007.5 |
| 20260510014544 | 11 | 153 | 0.0 | 0.0 | 0.00 | 0.69 | 0.43 | 93 | 1007.3 |
| 20260510013048 | 11 | 153 | 0.0 | 0.0 | 0.00 | 0.69 | 0.43 | 93 | 1007.3 |
| 20260510011542 | 12 | 153 | 0.0 | 0.0 | 0.00 | 0.69 | 0.43 | 93 | 1006.8 |
| 20260510010058 | 12 | 153 | 0.0 | 0.0 | 0.00 | 0.86 | 0.43 | 92 | 1007.1 |
| 20260510004541 | 12 | 153 | 0.0 | 0.0 | 0.00 | 0.86 | 0.43 | 91 | 1006.9 |
| 20260510003041 | 12 | 153 | 0.0 | 3.2 | 0.00 | 0.86 | 0.43 | 91 | 1007.0 |
| 20260510001540 | 12 | 153 | 0.0 | 3.2 | 0.00 | 0.86 | 0.43 | 90 | 1006.8 |
| 20260510000042 | 12 | 153 | 1.6 | 11.3 | 0.00 | 0.97 | 0.43 | 89 | 1007.2 |
| 20260509234557 | 13 | 153 | 3.2 | 16.1 | 0.00 | 0.97 | 0.43 | 87 | 1007.0 |
| 20260509233039 | 14 | 153 | 4.8 | 14.5 | 0.00 | 0.97 | 0.43 | 83 | 1006.4 |
| 20260509231538 | 19 | 153 | 1.6 | 8.0 | 0.00 | 0.97 | 0.43 | 66 | 1005.8 |
| 20260509230037 | 19 | 153 | 0.0 | 8.0 | 0.00 | 1.02 | 0.43 | 62 | 1004.7 |
| 20260509224537 | 20 | 153 | 1.6 | 8.0 | 0.00 | 1.02 | 0.43 | 62 | 1004.6 |
| 20260509223036 | 20 | 153 | 1.6 | 6.4 | 0.00 | 1.02 | 0.43 | 62 | 1004.5 |
| 20260509221559 | 20 | 153 | 1.6 | 6.4 | 0.00 | 1.02 | 0.43 | 61 | 1004.5 |
| 20260509220035 | 20 | 153 | 1.6 | 6.4 | 0.00 | 1.02 | 0.43 | 60 | 1004.5 |
| 20260509214536 | 20 | 153 | 1.6 | 6.4 | 0.00 | 1.02 | 0.43 | 62 | 1004.6 |
| 20260509213034 | 21 | 153 | 1.6 | 8.0 | 0.00 | 1.02 | 0.43 | 59 | 1004.5 |
| 20260509211532 | 21 | 153 | 1.6 | 9.7 | 0.00 | 1.02 | 0.43 | 60 | 1004.7 |
| 20260509210030 | 22 | 153 | 1.6 | 16.1 | 0.00 | 1.14 | 0.43 | 59 | 1005.0 |
| 20260509204529 | 22 | 153 | 1.6 | 9.7 | 0.00 | 1.14 | 0.43 | 60 | 1005.2 |
| 20260509203030 | 21 | 153 | 0.0 | 8.0 | 0.00 | 1.14 | 0.43 | 62 | 1005.4 |
| 20260509201526 | 22 | 153 | 1.6 | 16.1 | 0.00 | 1.14 | 0.43 | 61 | 1005.5 |
| 20260509200023 | 22 | 153 | 1.6 | 9.7 | 0.00 | 1.14 | 0.43 | 62 | 1005.8 |
| 20260509194521 | 21 | 153 | 3.2 | 12.9 | 0.00 | 1.14 | 0.43 | 61 | 1006.1 |
| 20260509193019 | 21 | 154 | 1.6 | 9.7 | 0.00 | 1.14 | 0.43 | 64 | 1006.3 |
| 20260509191516 | 20 | 154 | 1.6 | 6.4 | 0.00 | 1.14 | 0.43 | 61 | 1006.6 |
| 20260509190022 | 20 | 154 | 3.2 | 8.0 | 0.00 | 1.14 | 0.43 | 62 | 1006.7 |
| 20260509184526 | 20 | 154 | 1.6 | 12.9 | 0.00 | 1.14 | 0.43 | 63 | 1006.7 |
| 20260509183020 | 20 | 153 | 1.6 | 9.7 | 0.00 | 1.14 | 0.43 | 63 | 1006.8 |
| 20260509181513 | 21 | 154 | 0.0 | 8.0 | 0.00 | 1.14 | 0.43 | 62 | 1006.9 |
| 20260509180009 | 20 | 154 | 1.6 | 8.0 | 0.00 | 1.22 | 0.43 | 63 | 1006.9 |
| 20260509174509 | 20 | 154 | 3.2 | 8.0 | 0.00 | 1.22 | 0.43 | 63 | 1007.0 |
| 20260509173011 | 20 | 154 | 0.0 | 6.4 | 0.00 | 1.22 | 0.43 | 64 | 1007.0 |
| 20260509171505 | 20 | 154 | 1.6 | 8.0 | 0.00 | 1.22 | 0.43 | 66 | 1006.9 |
| 20260509164557 | 18 | 154 | 1.6 | 8.0 | 0.00 | 1.22 | 0.43 | 66 | 1007.2 |
| 20260509163059 | 17 | 153 | 0.0 | 6.4 | 0.00 | 1.22 | 0.43 | 70 | 1007.4 |
| 20260509161555 | 18 | 154 | 0.0 | 3.2 | 0.00 | 1.22 | 0.43 | 70 | 1007.5 |
| 20260509160049 | 17 | 154 | 1.6 | 8.0 | 0.00 | 1.22 | 0.43 | 74 | 1007.5 |
| 20260509154546 | 16 | 154 | 0.0 | 8.0 | 0.00 | 1.22 | 0.43 | 77 | 1007.6 |
| 20260509153046 | 16 | 154 | 1.6 | 6.4 | 0.00 | 1.22 | 0.43 | 80 | 1007.4 |
| 20260509151539 | 15 | 154 | 0.0 | 6.4 | 0.00 | 1.22 | 0.43 | 87 | 1007.4 |
| 20260509150037 | 14 | 154 | 0.0 | 3.2 | 0.00 | 1.22 | 0.43 | 89 | 1007.4 |
| 20260509144537 | 14 | 154 | 0.0 | 3.2 | 0.00 | 1.22 | 0.43 | 94 | 1007.4 |
| 20260509143031 | 13 | 154 | 0.0 | 3.2 | 0.00 | 1.22 | 0.43 | 95 | 1007.4 |
| 20260509141534 | 12 | 154 | 0.0 | 1.6 | 0.00 | 1.22 | 0.43 | 95 | 1007.5 |
| 20260509140033 | 12 | 154 | 0.0 | 1.6 | 0.00 | 1.22 | 0.43 | 95 | 1007.6 |
| 20260509134530 | 12 | 154 | 0.0 | 0.0 | 0.00 | 1.22 | 0.43 | 95 | 1007.6 |
| 20260509133027 | 12 | 154 | 0.0 | 1.6 | 0.00 | 1.22 | 0.43 | 95 | 1007.7 |
| 20260509131519 | 11 | 154 | 0.0 | 0.0 | 0.00 | 1.22 | 0.43 | 95 | 1007.6 |
| 20260509130033 | 11 | 154 | 0.0 | 1.6 | 0.00 | 1.22 | 0.43 | 95 | 1007.8 |
| 20260509124527 | 11 | 154 | 0.0 | 0.0 | 0.00 | 1.22 | 0.43 | 95 | 1008.0 |
| 20260509123025 | 11 | 153 | 0.0 | 0.0 | 0.00 | 1.22 | 0.43 | 95 | 1008.0 |
| 20260509121520 | 11 | 154 | 0.0 | 0.0 | 0.00 | 1.22 | 0.43 | 95 | 1008.1 |
| 20260509120013 | 11 | 154 | 0.0 | 0.0 | 0.00 | 1.22 | 0.43 | 95 | 1008.1 |
| 20260509114509 | -17 | 0.0 | 0.0 | 0.00 | 1.22 | 0.43 | 1008.2 | ||
| 20260509113006 | -17 | 0.0 | 0.0 | 0.00 | 1.22 | 0.43 | 1008.2 | ||
| 20260509111501 | -17 | 0.0 | 0.0 | 0.00 | 1.22 | 0.43 | 1007.9 | ||
| 20260509110106 | -17 | 0.0 | 0.0 | 0.00 | 1.24 | 0.43 | 1007.9 |